McAllen, TX

3:16 AM CDT on March 29, 2017 (GMT -0500)
McAllen Miller International

Weather History for KMFE - April, 2013

Change the Weather History Date:

Thursday, April 11, 2013

  Actual Average Record
Temperature  
Mean Temperature 68 °F 76 °F  
Max Temperature 79 °F 87 °F 105 °F (1965)
Min Temperature 57 °F 65 °F 47 °F (1989)
Degree Days  
Heating Degree Days 0 0  
Month to date heating degree days 0 3  
Since 1 July heating degree days 312 574  
Cooling Degree Days 3 11  
Month to date cooling degree days 119 115  
Year to date cooling degree days 587 492  
Growing Degree Days 18 (Base 50)    
Moisture  
Dew Point 46 °F    
Average Humidity 53    
Maximum Humidity 78    
Minimum Humidity 27    
Precipitation  
Precipitation T in 0.04 in 0.72 in (1978)
Month to date precipitation T 0.35  
Year to date precipitation 0.99 3.54  
Sea Level Pressure  
Sea Level Pressure 29.86 in    
Wind  
Wind Speed 11 mph (NE)    
Max Wind Speed 23 mph    
Max Gust Speed 29 mph    
Visibility 10 miles    
Events Rain    
T = Trace of Precipitation, MM = Missing Value Source: NWS Daily Summary

Daily Weather History Graph

Daily Weather History Graph

Search for Another Location

Airport or City:

Trip Planner

Search our weather history database for the weather conditions in past years. The results will help you decide how hot, cold, wet, or windy it might be!

Date:

Astronomy

Apr. 11, 2013 Rise Set
Actual Time 7:13 AM CDT 7:54 PM CDT
Civil Twilight 6:49 AM CDT 8:18 PM CDT
Nautical Twilight 6:22 AM CDT 8:45 PM CDT
Astronomical Twilight 5:54 AM CDT 9:14 PM CDT
Moon 7:54 AM CDT (4/11) 9:19 PM CDT (4/11)
Length of Visible Light 13h 28m
Length of Day
12h 41m
New Moon, 2% of the Moon is Illuminated
Apr 11
New Moon
Apr 18
First Quarter
Apr 25
Full
May 2
Last Quarter
May 9
New

Hourly Weather History & Observations

Time (CDT) Temp. Dew Point Humidity Pressure Visibility Wind Dir Wind Speed Gust Speed Precip Events Conditions
12:53 AM 62.1 °F 54.0 °F 75% 29.83 in 10.0 mi North 13.8 mph - 0.00 in Rain Light Rain
1:53 AM 61.0 °F 55.0 °F 81% 29.85 in 10.0 mi North 10.4 mph - 0.00 in   Overcast
2:53 AM 60.1 °F 53.1 °F 78% 29.84 in 10.0 mi North 10.4 mph - 0.00 in   Overcast
3:53 AM 62.1 °F 48.9 °F 62% 29.85 in 10.0 mi North 20.7 mph 28.8 mph N/A   Overcast
4:07 AM 62.6 °F 48.2 °F 59% 29.85 in 10.0 mi North 18.4 mph 25.3 mph N/A   Overcast
4:53 AM 62.1 °F 48.0 °F 60% 29.86 in 10.0 mi North 12.7 mph - N/A   Overcast
5:53 AM 61.0 °F 46.0 °F 58% 29.86 in 10.0 mi North 13.8 mph - N/A   Overcast
6:53 AM 60.1 °F 46.0 °F 60% 29.89 in 10.0 mi North 16.1 mph - N/A   Overcast
7:53 AM 57.0 °F 46.0 °F 67% 29.92 in 10.0 mi NNE 11.5 mph - N/A   Partly Cloudy
8:53 AM 59.0 °F 46.9 °F 64% 29.94 in 10.0 mi North 6.9 mph - N/A   Clear
9:53 AM 62.1 °F 45.0 °F 53% 29.95 in 10.0 mi North 8.1 mph - N/A   Clear
10:53 AM 66.0 °F 43.0 °F 43% 29.96 in 10.0 mi NNE 13.8 mph - N/A   Clear
11:53 AM 68.0 °F 42.8 °F 40% 29.95 in 10.0 mi NNE 16.1 mph - N/A   Clear
12:53 PM 70.0 °F 41.0 °F 35% 29.92 in 10.0 mi North 11.5 mph 19.6 mph N/A   Clear
1:53 PM 73.0 °F 43.0 °F 34% 29.88 in 10.0 mi NE 11.5 mph 18.4 mph N/A   Clear
2:53 PM 73.9 °F 42.1 °F 32% 29.85 in 10.0 mi NE 6.9 mph - N/A   Clear
3:53 PM 77.0 °F 42.1 °F 29% 29.81 in 10.0 mi ENE 8.1 mph 16.1 mph N/A   Clear
4:53 PM 78.1 °F 41.0 °F 27% 29.79 in 10.0 mi ENE 9.2 mph - N/A   Clear
5:53 PM 78.1 °F 41.0 °F 27% 29.78 in 10.0 mi ENE 10.4 mph - N/A   Clear
6:53 PM 75.0 °F 43.0 °F 32% 29.78 in 10.0 mi East 13.8 mph - N/A   Clear
7:42 PM 71.6 °F 42.8 °F 35% 29.80 in 10.0 mi East 13.8 mph 19.6 mph N/A   Partly Cloudy
7:53 PM 70.0 °F 43.0 °F 38% 29.81 in 10.0 mi East 11.5 mph - N/A   Partly Cloudy
8:53 PM 66.9 °F 45.0 °F 45% 29.83 in 10.0 mi ESE 10.4 mph - N/A   Clear
9:53 PM 64.0 °F 48.9 °F 58% 29.86 in 10.0 mi ESE 10.4 mph - N/A   Clear
10:53 PM 62.1 °F 50.0 °F 65% 29.89 in 10.0 mi ESE 8.1 mph - N/A   Clear
11:53 PM 61.0 °F 51.1 °F 70% 29.90 in 10.0 mi ESE 8.1 mph - N/A   Clear